Volk, WI

12:46 PM CDT on May 27, 2018 (GMT -0500)
Volk

Weather History for KVOK - February, 2013

Change the Weather History Date:

Tuesday, February 26, 2013

  Actual Average Record
Temperature  
Mean Temperature 28 °F -  
Max Temperature 37 °F 31 °F 53 °F (1998)
Min Temperature 18 °F 19 °F -9 °F (2014)
Degree Days  
Heating Degree Days 38    
Moisture  
Dew Point 23 °F    
Average Humidity 80    
Maximum Humidity 94    
Minimum Humidity 60    
Precipitation  
Precipitation 0.00 in - - ()
Snow  
Snow 0.00 in - - ()
Snow Depth 4.00 in    
Sea Level Pressure  
Sea Level Pressure 29.88 in    
Wind  
Wind Speed 8 mph (NE)    
Max Wind Speed 23 mph    
Max Gust Speed 28 mph    
Visibility 9 miles    
Events Snow    
Averages and records for this station are not official NWS values.
T = Trace of Precipitation, MM = Missing Value Source: NWS Daily Summary

Daily Weather History Graph

Daily Weather History Graph

Search for Another Location

Airport or City:

Astronomy

Feb. 26, 2013 Rise Set
Actual Time 6:42 AM CST 5:46 PM CST
Civil Twilight 6:13 AM CST 6:15 PM CST
Nautical Twilight 5:40 AM CST 6:48 PM CST
Astronomical Twilight 5:06 AM CST 7:21 PM CST
Moon 7:07 PM CST (2/26) 6:41 AM CST (2/26)
Length of Visible Light 12h 01m
Length of Day
11h 03m
Full, 99% of the Moon is Illuminated
Feb 26
Full
Mar 4
Last Quarter
Mar 11
New
Mar 19
First Quarter
Mar 27
Full

Hourly Weather History & Observations

Time (CST) Temp. Windchill Dew Point Humidity Pressure Visibility Wind Dir Wind Speed Gust Speed Precip Events Conditions
12:55 AM 18.0 °F - 16.0 °F 92% 30.06 in 6.0 mi Calm Calm - N/A   Clear
1:55 AM 22.3 °F - 20.8 °F 94% 30.04 in 10.0 mi Calm Calm - N/A   Clear
2:55 AM 19.9 °F 14.9 °F 18.1 °F 93% 30.02 in 8.0 mi North 3.5 mph - N/A   Clear
3:55 AM 22.6 °F 15.3 °F 20.1 °F 90% 29.99 in 10.0 mi NE 5.8 mph - N/A   Clear
4:55 AM 22.6 °F 16.5 °F 20.5 °F 91% 29.99 in 8.0 mi NE 4.6 mph - N/A   Clear
5:55 AM 21.9 °F 14.5 °F 19.9 °F 92% 29.96 in 8.0 mi NNE 5.8 mph - N/A   Clear
6:55 AM 23.0 °F 14.7 °F 21.2 °F 93% 29.96 in 3.0 mi NE 6.9 mph - N/A   Overcast
7:14 AM 23.0 °F 17.0 °F 21.2 °F 93% 29.97 in 6.0 mi NE 4.6 mph - N/A   Partly Cloudy
7:31 AM 23.0 °F 17.0 °F 21.2 °F 93% 29.96 in 4.0 mi Variable 4.6 mph - N/A   Overcast
7:55 AM 24.8 °F 19.1 °F 23.0 °F 93% 29.96 in 5.0 mi NNE 4.6 mph - N/A   Overcast
8:55 AM 26.6 °F 19.1 °F 24.8 °F 93% 29.95 in 10.0 mi ENE 6.9 mph - N/A   Overcast
9:55 AM 32.0 °F 23.0 °F 24.8 °F 75% 29.93 in 10.0 mi ENE 11.5 mph - N/A   Overcast
10:46 AM 33.8 °F 25.8 °F 24.8 °F 70% 29.87 in 10.0 mi ENE 10.4 mph 21.9 mph N/A   Overcast
10:55 AM 33.8 °F 23.2 °F 24.8 °F 70% 29.90 in 10.0 mi ENE 17.3 mph 23.0 mph N/A   Overcast
2:27 PM 35.6 °F 24.0 °F 24.8 °F 65% 29.78 in 10.0 mi NE 23.0 mph 27.6 mph N/A   Mostly Cloudy
2:55 PM 35.6 °F 24.0 °F 24.8 °F 65% 29.81 in 10.0 mi NE 23.0 mph - N/A   Mostly Cloudy
3:55 PM 37.4 °F 26.9 °F 24.8 °F 60% 29.80 in 10.0 mi NE 20.7 mph 25.3 mph N/A   Mostly Cloudy
4:55 PM 35.6 °F 25.5 °F 24.8 °F 65% 29.79 in 10.0 mi NE 17.3 mph - N/A   Overcast
5:55 PM 33.8 °F 22.8 °F 24.8 °F 70% 29.80 in 10.0 mi NE 18.4 mph 24.2 mph N/A   Overcast
6:55 PM 33.8 °F 22.8 °F 24.8 °F 70% 29.81 in 10.0 mi NE 18.4 mph 25.3 mph N/A   Overcast
7:39 PM 32.0 °F 20.1 °F 24.8 °F 75% 29.77 in 10.0 mi NE 19.6 mph 25.3 mph N/A Snow Light Snow
7:55 PM 32.0 °F 21.2 °F 24.8 °F 75% 29.80 in 10.0 mi NE 16.1 mph - N/A Snow Light Snow
8:08 PM 32.0 °F 20.8 °F 24.8 °F 75% 29.77 in 10.0 mi NE 17.3 mph - N/A   Overcast
8:55 PM 32.0 °F 21.2 °F 24.8 °F 75% 29.80 in 10.0 mi NE 16.1 mph - N/A   Overcast
9:28 PM 32.0 °F 22.5 °F 24.8 °F 75% 29.76 in 10.0 mi NE 12.7 mph 20.7 mph N/A Snow Light Snow
9:55 PM 32.0 °F 22.5 °F 24.8 °F 75% 29.79 in 10.0 mi NE 12.7 mph - N/A Snow Light Snow
10:55 PM 30.2 °F 21.9 °F 24.8 °F 80% 29.77 in 10.0 mi NNE 9.2 mph - N/A Snow Light Snow
11:55 PM 30.2 °F 20.2 °F 23.0 °F 75% 29.76 in 10.0 mi NNE 12.7 mph - N/A Snow Light Snow